EN

Hourly Weather Oleksandrivka

Today, 16 May, Sunday

Time Temperature Precipitation Wind Pressure Humidity
00:00 +16°C° 0 mm 2 mps 758 mmHg 70%
01:00 +16°C° 0 mm 3 mps 758 mmHg 71%
02:00 +14°C° 0 mm 3 mps 758 mmHg 73%
03:00 +14°C° 0 mm 3 mps 758 mmHg 73%
04:00 +14°C° 0 mm 4 mps 758 mmHg 74%
05:00 +14°C° 0 mm 4 mps 757 mmHg 74%
06:00 +17°C° 0 mm 4 mps 757 mmHg 68%
07:00 +19°C° 0 mm 5 mps 757 mmHg 62%
08:00 +21°C° 0 mm 5 mps 757 mmHg 56%
09:00 +22°C° 0 mm 4 mps 757 mmHg 51%
10:00 +25°C° 0 mm 4 mps 757 mmHg 46%
11:00 +26°C° 0 mm 3 mps 756 mmHg 42%
12:00 +27°C° 0 mm 3 mps 756 mmHg 40%
13:00 +27°C° 0 mm 3 mps 755 mmHg 39%
14:00 +28°C° 0 mm 4 mps 755 mmHg 37%
15:00 +26°C° 0.1 mm 3 mps 754 mmHg 45%
16:00 +25°C° 0.1 mm 3 mps 754 mmHg 53%
17:00 +24°C° 0.1 mm 2 mps 753 mmHg 61%
18:00 +21°C° 0.7 mm 2 mps 753 mmHg 68%
19:00 +20°C° 0.7 mm 3 mps 753 mmHg 75%
20:00 +18°C° 0.7 mm 3 mps 753 mmHg 83%
21:00 +18°C° 0.4 mm 4 mps 752 mmHg 85%
22:00 +18°C° 0.4 mm 4 mps 752 mmHg 87%
23:00 +17°C° 0.4 mm 5 mps 751 mmHg 89%

Tomorrow, 17 May, Monday

Time Temperature Precipitation Wind Pressure Humidity
00:00 +18°C° 0.4 mm 4 mps 751 mmHg 90%
01:00 +18°C° 0.4 mm 3 mps 751 mmHg 90%
02:00 +18°C° 0.4 mm 1 mps 750 mmHg 91%
03:00 +18°C° 0.3 mm 1 mps 750 mmHg 92%
04:00 +18°C° 0.3 mm 1 mps 750 mmHg 93%
05:00 +18°C° 0.3 mm 1 mps 750 mmHg 94%
06:00 +19°C° 0.1 mm 1 mps 751 mmHg 91%
07:00 +18°C° 0.1 mm 2 mps 751 mmHg 88%
08:00 +19°C° 0.1 mm 2 mps 751 mmHg 85%
09:00 +19°C° 0 mm 3 mps 751 mmHg 82%
10:00 +20°C° 0 mm 4 mps 751 mmHg 79%
11:00 +20°C° 0 mm 5 mps 751 mmHg 76%
12:00 +20°C° 0 mm 6 mps 752 mmHg 79%
13:00 +18°C° 0 mm 8 mps 752 mmHg 81%
14:00 +18°C° 0 mm 9 mps 752 mmHg 84%
15:00 +17°C° 0.2 mm 9 mps 752 mmHg 85%
16:00 +17°C° 0.2 mm 9 mps 752 mmHg 87%
17:00 +17°C° 0.2 mm 9 mps 752 mmHg 89%
18:00 +16°C° 1 mm 9 mps 753 mmHg 89%
19:00 +16°C° 1 mm 9 mps 754 mmHg 90%
20:00 +15°C° 1 mm 8 mps 754 mmHg 91%
21:00 +15°C° 1.3 mm 8 mps 754 mmHg 91%
22:00 +15°C° 1.3 mm 7 mps 755 mmHg 92%
23:00 +15°C° 1.3 mm 7 mps 755 mmHg 92%

Day after tomorrow, 18 May, Tuesday

Time Temperature Precipitation Wind Pressure Humidity
00:00 +15°C° 0.3 mm 7 mps 755 mmHg 92%
01:00 +15°C° 0.3 mm 6 mps 755 mmHg 91%
02:00 +14°C° 0.3 mm 6 mps 754 mmHg 91%
03:00 +14°C° 0 mm 6 mps 754 mmHg 90%
04:00 +14°C° 0 mm 6 mps 754 mmHg 89%
05:00 +14°C° 0 mm 7 mps 754 mmHg 89%
06:00 +16°C° 0 mm 7 mps 754 mmHg 85%
07:00 +17°C° 0 mm 7 mps 755 mmHg 80%
08:00 +18°C° 0 mm 7 mps 755 mmHg 76%
09:00 +20°C° 0.1 mm 8 mps 755 mmHg 73%
10:00 +21°C° 0.1 mm 8 mps 755 mmHg 69%
11:00 +22°C° 0.1 mm 8 mps 755 mmHg 66%
12:00 +22°C° 0 mm 8 mps 755 mmHg 64%
13:00 +22°C° 0 mm 9 mps 755 mmHg 63%
14:00 +22°C° 0 mm 9 mps 755 mmHg 61%
15:00 +21°C° 0 mm 8 mps 755 mmHg 63%
16:00 +20°C° 0 mm 7 mps 756 mmHg 65%
17:00 +20°C° 0 mm 6 mps 756 mmHg 66%
18:00 +17°C° 0 mm 6 mps 756 mmHg 74%
19:00 +16°C° 0 mm 5 mps 757 mmHg 81%
20:00 +15°C° 0 mm 4 mps 757 mmHg 89%
21:00 +14°C° 0 mm 4 mps 757 mmHg 89%
22:00 +14°C° 0 mm 3 mps 757 mmHg 89%
23:00 +14°C° 0 mm 3 mps 758 mmHg 88%

19 May, Wednesday

Time Temperature Precipitation Wind Pressure Humidity
00:00 +15°C° 0 mm 2 mps 758 mmHg 86%
01:00 +14°C° 0 mm 2 mps 758 mmHg 84%
02:00 +14°C° 0 mm 1 mps 758 mmHg 82%
03:00 +14°C° 0 mm 1 mps 758 mmHg 82%
04:00 +15°C° 0 mm 2 mps 758 mmHg 81%
05:00 +15°C° 0 mm 2 mps 758 mmHg 81%
06:00 +16°C° 0.1 mm 2 mps 758 mmHg 77%
07:00 +17°C° 0.1 mm 2 mps 758 mmHg 73%
08:00 +18°C° 0.1 mm 2 mps 758 mmHg 69%
09:00 +18°C° 0.8 mm 3 mps 758 mmHg 71%
10:00 +18°C° 0.8 mm 3 mps 758 mmHg 73%
11:00 +18°C° 0.8 mm 3 mps 758 mmHg 75%
12:00 +17°C° 1.4 mm 3 mps 758 mmHg 79%
13:00 +16°C° 1.4 mm 3 mps 758 mmHg 84%
14:00 +15°C° 1.4 mm 2 mps 758 mmHg 89%
15:00 +15°C° 0.7 mm 2 mps 758 mmHg 89%
16:00 +15°C° 0.7 mm 1 mps 759 mmHg 90%
17:00 +15°C° 0.7 mm 1 mps 759 mmHg 90%
18:00 +15°C° 0.1 mm 1 mps 759 mmHg 91%
19:00 +14°C° 0.1 mm 2 mps 759 mmHg 93%
20:00 +14°C° 0.1 mm 2 mps 759 mmHg 94%
21:00 +13°C° 0 mm 2 mps 759 mmHg 94%
22:00 +13°C° 0 mm 1 mps 759 mmHg 94%
23:00 +12°C° 0 mm 1 mps 760 mmHg 94%

20 May, Thursday

Time Temperature Precipitation Wind Pressure Humidity
00:00 +12°C° 0 mm 2 mps 760 mmHg 94%
01:00 +12°C° 0 mm 2 mps 760 mmHg 93%
02:00 +11°C° 0 mm 3 mps 760 mmHg 93%
03:00 +11°C° 0 mm 3 mps 760 mmHg 93%
04:00 +11°C° 0 mm 4 mps 760 mmHg 93%
05:00 +11°C° 0 mm 4 mps 760 mmHg 93%
06:00 +13°C° 0 mm 4 mps 760 mmHg 87%
07:00 +14°C° 0 mm 5 mps 760 mmHg 81%
08:00 +16°C° 0 mm 5 mps 760 mmHg 75%
09:00 +17°C° 0 mm 5 mps 760 mmHg 69%
10:00 +19°C° 0 mm 5 mps 760 mmHg 63%
11:00 +20°C° 0 mm 5 mps 760 mmHg 57%
12:00 +21°C° 0 mm 4 mps 759 mmHg 58%
13:00 +21°C° 0 mm 4 mps 759 mmHg 58%
14:00 +21°C° 0 mm 4 mps 759 mmHg 58%
15:00 +20°C° 0.2 mm 3 mps 759 mmHg 62%
16:00 +19°C° 0.2 mm 3 mps 759 mmHg 66%
17:00 +19°C° 0.2 mm 3 mps 759 mmHg 70%
18:00 +18°C° 0.2 mm 3 mps 759 mmHg 75%
19:00 +17°C° 0.2 mm 4 mps 759 mmHg 80%
20:00 +15°C° 0.2 mm 5 mps 759 mmHg 84%
21:00 +15°C° 0 mm 5 mps 758 mmHg 83%
22:00 +15°C° 0 mm 6 mps 758 mmHg 82%
23:00 +15°C° 0 mm 7 mps 758 mmHg 81%

21 May, Friday

Time Temperature Precipitation Wind Pressure Humidity
00:00 +15°C° 0 mm 7 mps 758 mmHg 82%
01:00 +15°C° 0 mm 7 mps 758 mmHg 82%
02:00 +14°C° 0 mm 7 mps 758 mmHg 82%
03:00 +14°C° 0.1 mm 7 mps 758 mmHg 83%
04:00 +14°C° 0.1 mm 6 mps 758 mmHg 84%
05:00 +14°C° 0.1 mm 6 mps 758 mmHg 85%
06:00 +14°C° 1.3 mm 6 mps 758 mmHg 88%
07:00 +14°C° 1.3 mm 6 mps 758 mmHg 91%
08:00 +14°C° 1.3 mm 5 mps 759 mmHg 94%
09:00 +14°C° 0.5 mm 5 mps 759 mmHg 92%
10:00 +15°C° 0.5 mm 5 mps 759 mmHg 90%
11:00 +15°C° 0.5 mm 5 mps 759 mmHg 88%
12:00 +16°C° 0.2 mm 6 mps 759 mmHg 85%
13:00 +16°C° 0.2 mm 6 mps 759 mmHg 82%
14:00 +17°C° 0.2 mm 7 mps 759 mmHg 80%
15:00 +17°C° 0.8 mm 6 mps 759 mmHg 80%
16:00 +17°C° 0.8 mm 5 mps 759 mmHg 80%
17:00 +18°C° 0.8 mm 4 mps 759 mmHg 80%
18:00 +18°C° 0.3 mm 4 mps 759 mmHg 80%
19:00 +18°C° 0.3 mm 4 mps 759 mmHg 80%
20:00 +17°C° 0.3 mm 4 mps 759 mmHg 81%
21:00 +16°C° 0.8 mm 5 mps 759 mmHg 81%
22:00 +16°C° 0.8 mm 5 mps 759 mmHg 82%
23:00 +16°C° 0.8 mm 6 mps 759 mmHg 82%
Show more

We Need Your Consent

Meteoprog and our Service Providers may store and access personal data such as cookies, device identifiers or other similar technologies on your device and process such data to personalise content and ads, as well as provide social media features and to analyse the traffic.

  • Store and/or access information on your device

    Cookies, device identifiers or other information can be stored or accessed on your device for the purposes indicated above.

  • Personalised ads and content, ad and content measurement, audience insights, and products development

    Ads and content can be personalised based on a profile. More data can be added to better personalise ads and content. Ad and content performance can be measured. Insights about the audience who saw the ads and content can be derived. Such data can be used to develop or improve user’s experience, systems and software.

By clicking ‘I Agree’ you will allow the use of indicated cookies, device identifiers, web beacons or other similar technologies. Your settings can be changed in the browser on your device.

For certain purposes, legitimate interests may be relied on, rather than consent. You can read more about this in our Privacy and Cookie Policy.